Home   Weather   Guangzhou   Past weeks

Flag for China Past Weather in Guangzhou, Guangdong, China — Yesterday and Last 2 Weeks

Now
70 °F

Fog.


Feels Like: 70 °F
Forecast: 67 / 84 °F
Wind: 3 mph from East

Location: Canton Airport

Current Time: Apr 30, 2017 at 7:53:32 am

Latest Report: Apr 30, 2017 at 7:00 am


Visibility: 2 mi

Pressure: 29.92 "Hg

Humidity: 88%

Dew Point: 66 °F

Location of GuangzhouLocation

Past Weather in Guangzhou — Graph

°F

Guangzhou Temperature Yesterday

Maximum temperature yesterday: 84 °F (at 2:00 pm)
Minimum temperature yesterday: 63 °F (at 5:30 am)
Average temperature yesterday: 74 °F

High & Low Weather Summary for the Past Weeks

 TemperatureHumidityPressure
High91 °F (Apr 17, 2:30 pm)100% (Apr 20, 7:30 am)30.07 "Hg (Apr 20, 7:30 am)
Low63 °F (Apr 22, 10:00 am)18% (Apr 28, 2:30 pm)29.68 "Hg (Apr 21, 1:00 pm)
Average75 °F76%29.87 "Hg
* Reported Apr 15 6:00 am — Apr 30 6:30 am, Guangzhou, Weather by CustomWeather, © 2017

Note: Actual official high and low records may vary slightly from our data, if they occured in-between our weather recording intervals... More about our weather records

Advertising

Guangzhou Weather History for the Previous 24 Hours

Scroll right to see more
 ConditionsComfort  
Time TempWeatherWind HumidityBarometerVisibility
6:30 am
Sun, Apr 30
68 °FFog.No wind88%29.92 "Hg1 mi
6:00 am68 °FFog.1 mph88%29.89 "Hg2 mi
5:30 am70 °FFog.1 mph83%29.89 "Hg2 mi
5:00 am70 °FFog.1 mph88%29.89 "Hg2 mi
4:30 am70 °FFog.1 mph83%29.89 "Hg3 mi
3:30 am70 °FFog.1 mph83%29.89 "Hg3 mi
3:00 am70 °FFog.1 mph83%29.89 "Hg3 mi
2:30 am72 °FFog.1 mph78%29.89 "Hg3 mi
2:00 am72 °FFog.1 mph78%29.92 "Hg3 mi
1:30 am72 °FFog.3 mph78%29.92 "Hg3 mi
1:00 am72 °FFog.3 mph78%29.92 "Hg3 mi
12:30 am73 °FPassing clouds.3 mph74%29.92 "Hg4 mi
12:00 am73 °FPassing clouds.3 mph74%29.92 "Hg4 mi
11:30 pm
Sat, Apr 29
73 °FPassing clouds.3 mph69%29.92 "Hg4 mi
11:00 pm75 °FPassing clouds.3 mph65%29.92 "Hg5 mi
10:30 pm73 °FPassing clouds.3 mph65%29.92 "Hg5 mi
10:00 pm75 °FPassing clouds.3 mph61%29.92 "Hg5 mi
8:30 pm77 °FPassing clouds.6 mph57%29.89 "Hg4 mi
8:00 pm79 °FPassing clouds.3 mph54%29.89 "HgN/A
7:30 pm79 °FPassing clouds.3 mph51%29.89 "HgN/A
7:00 pm81 °FPassing clouds.1 mph45%29.86 "HgN/A
6:30 pm81 °FPassing clouds.1 mph42%29.86 "HgN/A
6:00 pm82 °FPassing clouds.3 mph40%29.86 "HgN/A
5:30 pm82 °FPassing clouds.3 mph37%29.86 "HgN/A
5:00 pm84 °FPassing clouds.3 mph31%29.86 "HgN/A
4:30 pm84 °FPassing clouds.3 mph35%29.86 "HgN/A
3:30 pm84 °FSunny.3 mph35%29.89 "Hg10 mi
3:00 pm84 °FSunny.3 mph37%29.89 "Hg10 mi
2:30 pm84 °FPassing clouds.6 mph40%29.89 "Hg5 mi
2:00 pm84 °FPassing clouds.3 mph35%29.92 "Hg5 mi
1:30 pm82 °FPassing clouds.6 mph37%29.92 "Hg4 mi
1:00 pm82 °FClear.3 mph40%29.95 "Hg4 mi
12:30 pm82 °FClear.3 mph40%29.95 "Hg5 mi
12:00 pm81 °FHaze.1 mph45%29.95 "Hg3 mi
11:30 am81 °FHaze.1 mph45%29.98 "Hg3 mi
11:00 am79 °FHaze.1 mph51%29.98 "Hg3 mi
10:30 am79 °FHaze.1 mph54%29.98 "Hg3 mi
10:00 am77 °FHaze.1 mph57%29.98 "Hg3 mi
9:30 am75 °FClear.1 mph65%30.01 "Hg4 mi
9:00 am72 °FClear.3 mph69%30.01 "Hg5 mi
8:30 am70 °FSunny.3 mph69%30.01 "Hg10 mi
8:00 am68 °FSunny.3 mph73%30.01 "Hg10 mi
7:30 am66 °FSunny.3 mph73%29.98 "Hg10 mi
7:00 am64 °FSunny.1 mph78%29.98 "Hg10 mi
Weather by CustomWeather, © 2017

See weather overviewHow to use our weather pages